N5817F KJAC-KOMA

Flight info

Callsign N5817F
Flight time 1h 34m
Altitude 43000
Route BOY DDY OBH HOWRY HOWRY3
Aircraft C700/M-SBDGHM1RWXY/LB2

Departure

Time 2026-04-29 15:12
Airport Jackson Hole Airport (KJAC)

Arrival

Time 2026-04-29 16:47
Airport Eppley Airfield (KOMA)
Time Latitude Longitude Altitude Speed Heading
2026-04-29 14:55 43.59907 -110.73896 6416 ft 0 kts 112°
2026-04-29 14:58 43.59908 -110.73900 6415 ft 0 kts 283°
2026-04-29 14:58 43.59909 -110.73900 6415 ft 0 kts 291°
2026-04-29 14:58 43.59910 -110.73897 6415 ft 0 kts 19°
2026-04-29 15:07 43.59915 -110.73895 6417 ft 3 kts 16°
2026-04-29 15:07 43.59963 -110.73898 6419 ft 9 kts 347°
2026-04-29 15:08 43.60008 -110.73951 6419 ft 9 kts 320°
2026-04-29 15:08 43.60068 -110.73942 6421 ft 9 kts 19°
2026-04-29 15:08 43.60125 -110.73914 6422 ft 10 kts 21°
2026-04-29 15:08 43.60202 -110.73876 6422 ft 14 kts 19°
2026-04-29 15:09 43.60306 -110.73825 6425 ft 18 kts 19°
2026-04-29 15:09 43.60422 -110.73771 6428 ft 17 kts 18°
2026-04-29 15:09 43.60531 -110.73717 6432 ft 16 kts 20°
2026-04-29 15:09 43.60631 -110.73667 6434 ft 15 kts 19°
2026-04-29 15:10 43.60734 -110.73616 6437 ft 19 kts 19°
2026-04-29 15:10 43.60863 -110.73554 6440 ft 19 kts 19°
2026-04-29 15:10 43.60984 -110.73496 6441 ft 18 kts 20°
2026-04-29 15:10 43.61100 -110.73437 6442 ft 20 kts 20°
2026-04-29 15:11 43.61234 -110.73372 6448 ft 20 kts 19°
2026-04-29 15:11 43.61359 -110.73312 6449 ft 18 kts 19°
2026-04-29 15:11 43.61475 -110.73258 6445 ft 17 kts
2026-04-29 15:11 43.61526 -110.73370 6454 ft 16 kts 251°
2026-04-29 15:12 43.61385 -110.73460 6443 ft 44 kts 199°
2026-04-29 15:12 43.61062 -110.73617 6443 ft 102 kts 200°
2026-04-29 15:12 43.59776 -110.74266 6776 ft 176 kts 201°
2026-04-29 15:12 43.58638 -110.74856 7938 ft 175 kts 200°
2026-04-29 15:13 43.57440 -110.75435 9194 ft 186 kts 196°
2026-04-29 15:13 43.56148 -110.75290 10376 ft 203 kts 153°
2026-04-29 15:13 43.55225 -110.73771 11418 ft 214 kts 104°
2026-04-29 15:13 43.55273 -110.71705 12555 ft 223 kts 81°
2026-04-29 15:14 43.55492 -110.69596 13893 ft 220 kts 81°
2026-04-29 15:14 43.55659 -110.67430 14780 ft 240 kts 83°
2026-04-29 15:14 43.55800 -110.65052 15722 ft 248 kts 84°
2026-04-29 15:14 43.55882 -110.62653 16830 ft 255 kts 89°
2026-04-29 15:15 43.55781 -110.60168 17858 ft 263 kts 94°
2026-04-29 15:15 43.55642 -110.57623 18859 ft 270 kts 92°
2026-04-29 15:15 43.55570 -110.55016 19767 ft 275 kts 90°
2026-04-29 15:15 43.55500 -110.52356 20661 ft 281 kts 91°
2026-04-29 15:16 43.55412 -110.49652 21530 ft 286 kts 91°
2026-04-29 15:16 43.55320 -110.46876 22396 ft 293 kts 91°
2026-04-29 15:16 43.55228 -110.43950 22785 ft 319 kts 91°
2026-04-29 15:16 43.55126 -110.40830 23572 ft 328 kts 91°
2026-04-29 15:17 43.55024 -110.37666 24433 ft 333 kts 91°
2026-04-29 15:17 43.54917 -110.34444 25199 ft 339 kts 91°
2026-04-29 15:17 43.54807 -110.31166 25950 ft 345 kts 91°
2026-04-29 15:17 43.54697 -110.27838 26716 ft 350 kts 91°
2026-04-29 15:18 43.54582 -110.24457 27447 ft 356 kts 91°
2026-04-29 15:18 43.54465 -110.21020 28187 ft 362 kts 91°
2026-04-29 15:18 43.54345 -110.17533 28905 ft 367 kts 90°
2026-04-29 15:18 43.54222 -110.13992 29615 ft 373 kts 90°
2026-04-29 15:19 43.54097 -110.10397 30286 ft 378 kts 90°
2026-04-29 15:19 43.53967 -110.06758 30873 ft 383 kts 90°
2026-04-29 15:19 43.53835 -110.03076 31470 ft 387 kts 90°
2026-04-29 15:19 43.53702 -109.99352 32046 ft 391 kts 90°
2026-04-29 15:20 43.53565 -109.95588 32625 ft 395 kts 90°
2026-04-29 15:20 43.53428 -109.91850 33163 ft 398 kts 90°
2026-04-29 15:20 43.53286 -109.88017 33664 ft 403 kts 90°
2026-04-29 15:20 43.53141 -109.84137 34218 ft 407 kts 90°
2026-04-29 15:21 43.52994 -109.80225 34682 ft 411 kts 90°
2026-04-29 15:21 43.52844 -109.76281 35151 ft 414 kts 90°
2026-04-29 15:21 43.52691 -109.72305 35606 ft 417 kts 90°
2026-04-29 15:21 43.52536 -109.68305 36062 ft 420 kts 91°
2026-04-29 15:22 43.52379 -109.64273 36520 ft 423 kts 91°
2026-04-29 15:22 43.52219 -109.60213 36965 ft 426 kts 91°
2026-04-29 15:22 43.52055 -109.56120 37409 ft 429 kts 91°
2026-04-29 15:22 43.51889 -109.51999 37847 ft 432 kts 91°
2026-04-29 15:23 43.51723 -109.47861 38277 ft 435 kts 92°
2026-04-29 15:23 43.51553 -109.43685 38713 ft 438 kts 92°
2026-04-29 15:23 43.51379 -109.39490 39081 ft 441 kts 92°
2026-04-29 15:23 43.51202 -109.35268 39398 ft 444 kts 92°
2026-04-29 15:24 43.51025 -109.31004 39706 ft 447 kts 92°
2026-04-29 15:24 43.50844 -109.26717 40008 ft 450 kts 92°
2026-04-29 15:24 43.50659 -109.22402 40309 ft 453 kts 92°
2026-04-29 15:24 43.50470 -109.18048 40607 ft 456 kts 92°
2026-04-29 15:25 43.50281 -109.13677 40887 ft 460 kts 92°
2026-04-29 15:25 43.50087 -109.09261 41182 ft 463 kts 92°
2026-04-29 15:25 43.49891 -109.04828 41471 ft 466 kts 92°
2026-04-29 15:25 43.49691 -109.00357 41759 ft 469 kts 92°
2026-04-29 15:26 43.49489 -108.95865 42039 ft 472 kts 92°
2026-04-29 15:26 43.49284 -108.91339 42320 ft 475 kts 92°
2026-04-29 15:26 43.49074 -108.86785 42619 ft 477 kts 92°
2026-04-29 15:26 43.48863 -108.82224 42988 ft 478 kts 92°
2026-04-29 15:27 43.48653 -108.77708 43173 ft 483 kts 92°
2026-04-29 15:27 43.48212 -108.68378 43188 ft 493 kts 92°
2026-04-29 15:28 43.47755 -108.58868 43202 ft 503 kts 92°
2026-04-29 15:28 43.47280 -108.49177 43210 ft 512 kts 93°
2026-04-29 15:29 43.46792 -108.39358 43213 ft 515 kts 93°
2026-04-29 15:30 43.44564 -108.20063 43196 ft 511 kts 103°
2026-04-29 15:30 43.42928 -108.10540 43189 ft 513 kts 103°
2026-04-29 15:31 43.41216 -108.00973 43196 ft 516 kts 103°
2026-04-29 15:31 43.39529 -107.91385 43192 ft 515 kts 103°
2026-04-29 15:32 43.37820 -107.81856 43190 ft 512 kts 103°
2026-04-29 15:32 43.36124 -107.72371 43191 ft 511 kts 103°
2026-04-29 15:33 43.34411 -107.62875 43194 ft 513 kts 104°
2026-04-29 15:33 43.32685 -107.53345 43190 ft 516 kts 104°
2026-04-29 15:34 43.30944 -107.43786 43183 ft 515 kts 104°
2026-04-29 15:34 43.29202 -107.34268 43180 ft 513 kts 104°
2026-04-29 15:35 43.27460 -107.24804 43174 ft 511 kts 104°
2026-04-29 15:35 43.26007 -107.16940 43169 ft 513 kts 104°
2026-04-29 15:36 43.24241 -107.07431 43178 ft 516 kts 104°
2026-04-29 15:36 43.22166 -106.96315 43180 ft 518 kts 104°
2026-04-29 15:37 43.20665 -106.88320 43162 ft 516 kts 104°
2026-04-29 15:37 43.18874 -106.78812 43157 ft 513 kts 104°
2026-04-29 15:38 43.17080 -106.69345 43160 ft 515 kts 104°
2026-04-29 15:38 43.15269 -106.59832 43171 ft 517 kts 105°
2026-04-29 15:39 43.13454 -106.50343 43179 ft 520 kts 105°
2026-04-29 15:39 43.11614 -106.40774 43184 ft 518 kts 105°
2026-04-29 15:40 43.09777 -106.31265 43183 ft 515 kts 105°
2026-04-29 15:40 43.08053 -106.21770 43174 ft 515 kts 103°
2026-04-29 15:41 43.06332 -106.12236 43164 ft 518 kts 104°
2026-04-29 15:41 43.04629 -106.02630 43159 ft 521 kts 104°
2026-04-29 15:42 43.02899 -105.93045 43159 ft 518 kts 104°
2026-04-29 15:42 43.01181 -105.83504 43158 ft 516 kts 104°
2026-04-29 15:43 42.99456 -105.74018 43158 ft 516 kts 104°
2026-04-29 15:43 42.97715 -105.64469 43162 ft 519 kts 104°
2026-04-29 15:44 42.95955 -105.54872 43178 ft 521 kts 104°
2026-04-29 15:44 42.94202 -105.45359 43182 ft 520 kts 104°
2026-04-29 15:45 42.92434 -105.35821 43185 ft 518 kts 104°
2026-04-29 15:45 42.90665 -105.26316 43180 ft 517 kts 104°
2026-04-29 15:46 42.88885 -105.16807 43174 ft 519 kts 104°
2026-04-29 15:46 42.87088 -105.07254 43176 ft 521 kts 105°
2026-04-29 15:47 42.85277 -104.97672 43178 ft 523 kts 105°
2026-04-29 15:47 42.83460 -104.88105 43181 ft 520 kts 105°
2026-04-29 15:48 42.81643 -104.78584 43179 ft 518 kts 105°
2026-04-29 15:48 42.79823 -104.69104 43181 ft 518 kts 105°
2026-04-29 15:49 42.77989 -104.59587 43179 ft 521 kts 105°
2026-04-29 15:49 42.76138 -104.50031 43187 ft 524 kts 105°
2026-04-29 15:50 42.74275 -104.40462 43189 ft 522 kts 105°
2026-04-29 15:50 42.72415 -104.30951 43183 ft 519 kts 105°
2026-04-29 15:51 42.70554 -104.21485 43162 ft 518 kts 106°
2026-04-29 15:51 42.68679 -104.11992 43151 ft 522 kts 106°
2026-04-29 15:52 42.66783 -104.02443 43145 ft 524 kts 106°
2026-04-29 15:52 42.64883 -103.92909 43147 ft 522 kts 106°
2026-04-29 15:53 42.62982 -103.83425 43138 ft 519 kts 106°
2026-04-29 15:53 42.61079 -103.73969 43155 ft 519 kts 106°
2026-04-29 15:54 42.59160 -103.64483 43157 ft 523 kts 106°
2026-04-29 15:54 42.57235 -103.55006 43167 ft 525 kts 106°
2026-04-29 15:55 42.55280 -103.45429 43173 ft 521 kts 106°
2026-04-29 15:55 42.53357 -103.36056 43177 ft 518 kts 106°
2026-04-29 15:56 42.51414 -103.26621 43179 ft 522 kts 107°
2026-04-29 15:56 42.49446 -103.17119 43184 ft 525 kts 107°
2026-04-29 15:57 42.47466 -103.07594 43181 ft 524 kts 107°
2026-04-29 15:57 42.45487 -102.98123 43182 ft 521 kts 107°
2026-04-29 15:58 42.43505 -102.88682 43180 ft 521 kts 107°
2026-04-29 15:58 42.41512 -102.79228 43171 ft 524 kts 107°
2026-04-29 15:59 42.39499 -102.69722 43171 ft 527 kts 107°
2026-04-29 15:59 42.37473 -102.60201 43178 ft 526 kts 107°
2026-04-29 16:00 42.35445 -102.50711 43176 ft 524 kts 107°
2026-04-29 16:00 42.33416 -102.41260 43177 ft 522 kts 107°
2026-04-29 16:01 42.31387 -102.31845 43170 ft 523 kts 107°
2026-04-29 16:01 42.29340 -102.22397 43168 ft 525 kts 107°
2026-04-29 16:02 42.27292 -102.12987 43178 ft 527 kts 107°
2026-04-29 16:02 42.25215 -102.03477 43182 ft 528 kts 108°
2026-04-29 16:03 42.23139 -101.94020 43177 ft 524 kts 108°
2026-04-29 16:03 42.21069 -101.84627 43175 ft 522 kts 108°
2026-04-29 16:04 42.18987 -101.75230 43169 ft 524 kts 108°
2026-04-29 16:04 42.16893 -101.65808 43172 ft 527 kts 108°
2026-04-29 16:05 42.14774 -101.56327 43175 ft 526 kts 108°
2026-04-29 16:05 42.12666 -101.46923 43179 ft 523 kts 108°
2026-04-29 16:06 42.10561 -101.37581 43175 ft 522 kts 108°
2026-04-29 16:06 42.08438 -101.28197 43175 ft 524 kts 108°
2026-04-29 16:07 42.06303 -101.18801 43172 ft 526 kts 108°
2026-04-29 16:07 42.04153 -101.09376 43178 ft 527 kts 109°
2026-04-29 16:08 42.02021 -101.00072 43182 ft 525 kts 109°
2026-04-29 16:08 41.99847 -100.90626 43189 ft 522 kts 109°
2026-04-29 16:09 41.97695 -100.81313 43195 ft 523 kts 109°
2026-04-29 16:09 41.95540 -100.72026 43203 ft 525 kts 109°
2026-04-29 16:10 41.93353 -100.62637 43207 ft 528 kts 109°
2026-04-29 16:10 41.91154 -100.53242 43206 ft 526 kts 109°
2026-04-29 16:11 41.88957 -100.43891 43204 ft 524 kts 109°
2026-04-29 16:11 41.86748 -100.34527 43201 ft 522 kts 109°
2026-04-29 16:12 41.84558 -100.25288 43203 ft 525 kts 109°
2026-04-29 16:12 41.82334 -100.15935 43200 ft 527 kts 110°
2026-04-29 16:13 41.80092 -100.06551 42811 ft 525 kts 110°
2026-04-29 16:13 41.78971 -100.01871 42285 ft 532 kts 110°
2026-04-29 16:13 41.77836 -99.97146 41742 ft 532 kts 110°
2026-04-29 16:13 41.76706 -99.92445 41206 ft 528 kts 110°
2026-04-29 16:14 41.75583 -99.87780 40686 ft 523 kts 110°
2026-04-29 16:14 41.74475 -99.83195 40174 ft 513 kts 110°
2026-04-29 16:14 41.73384 -99.78689 39674 ft 504 kts 110°
2026-04-29 16:14 41.72308 -99.74253 39183 ft 500 kts 110°
2026-04-29 16:15 41.71231 -99.69827 38655 ft 502 kts 110°
2026-04-29 16:15 41.70144 -99.65362 38055 ft 507 kts 110°
2026-04-29 16:15 41.69049 -99.60872 37484 ft 508 kts 110°
2026-04-29 16:15 41.67959 -99.56401 36926 ft 503 kts 110°
2026-04-29 16:16 41.66877 -99.51983 36380 ft 497 kts 110°
2026-04-29 16:16 41.65806 -99.47620 35848 ft 491 kts 110°
2026-04-29 16:16 41.64730 -99.43252 35319 ft 502 kts 110°
2026-04-29 16:16 41.63620 -99.38753 34818 ft 513 kts 110°
2026-04-29 16:17 41.62506 -99.34223 34329 ft 510 kts 110°
2026-04-29 16:17 41.61405 -99.29756 33758 ft 504 kts 110°
2026-04-29 16:17 41.60308 -99.25333 33172 ft 500 kts 110°
2026-04-29 16:17 41.59209 -99.20918 32598 ft 502 kts 110°
2026-04-29 16:18 41.58122 -99.16545 32045 ft 502 kts 110°
2026-04-29 16:18 41.57032 -99.12151 31689 ft 495 kts 110°
2026-04-29 16:18 41.55935 -99.07760 31333 ft 509 kts 110°
2026-04-29 16:18 41.54788 -99.03194 30964 ft 526 kts 110°
2026-04-29 16:19 41.53629 -98.98557 30589 ft 526 kts 110°
2026-04-29 16:19 41.52475 -98.93935 30192 ft 524 kts 110°
2026-04-29 16:19 41.51316 -98.89334 29786 ft 523 kts 110°
2026-04-29 16:19 41.50151 -98.84722 29399 ft 525 kts 110°
2026-04-29 16:20 41.48984 -98.80101 29027 ft 528 kts 110°
2026-04-29 16:20 41.47808 -98.75441 28645 ft 530 kts 110°
2026-04-29 16:20 41.46628 -98.70783 28270 ft 530 kts 110°
2026-04-29 16:20 41.45448 -98.66141 27895 ft 525 kts 110°
2026-04-29 16:21 41.44293 -98.61595 27526 ft 512 kts 110°
2026-04-29 16:21 41.43159 -98.57143 27164 ft 503 kts 110°
2026-04-29 16:21 41.42035 -98.52750 26805 ft 500 kts 110°
2026-04-29 16:21 41.40913 -98.48366 26445 ft 499 kts 110°
2026-04-29 16:22 41.39794 -98.43998 26087 ft 497 kts 110°
2026-04-29 16:22 41.38696 -98.39709 25735 ft 496 kts 110°
2026-04-29 16:22 41.37871 -98.35261 25374 ft 496 kts 99°
2026-04-29 16:22 41.37570 -98.30697 25012 ft 493 kts 90°
2026-04-29 16:23 41.37585 -98.26150 24667 ft 490 kts 89°
2026-04-29 16:23 41.37577 -98.21620 24313 ft 488 kts 90°
2026-04-29 16:23 41.37562 -98.17123 23968 ft 485 kts 90°
2026-04-29 16:23 41.37562 -98.12640 23584 ft 482 kts 89°
2026-04-29 16:24 41.37561 -98.08203 23222 ft 478 kts 89°
2026-04-29 16:24 41.37549 -98.03790 22874 ft 475 kts 90°
2026-04-29 16:24 41.37535 -97.99410 22527 ft 473 kts 90°
2026-04-29 16:24 41.37525 -97.95040 22197 ft 471 kts 90°
2026-04-29 16:25 41.37512 -97.90694 21851 ft 468 kts 90°
2026-04-29 16:25 41.37498 -97.86662 21540 ft 466 kts 90°
2026-04-29 16:25 41.37480 -97.82354 21202 ft 463 kts 90°
2026-04-29 16:25 41.37462 -97.78088 20869 ft 460 kts 90°
2026-04-29 16:26 41.37443 -97.73843 20539 ft 456 kts 90°
2026-04-29 16:26 41.37422 -97.69636 20207 ft 453 kts 90°
2026-04-29 16:26 41.37407 -97.66860 19992 ft 452 kts 90°
2026-04-29 16:26 41.37385 -97.62689 19665 ft 449 kts 90°
2026-04-29 16:27 41.37359 -97.58548 19341 ft 447 kts 90°
2026-04-29 16:27 41.37333 -97.54424 19020 ft 445 kts 90°
2026-04-29 16:27 41.37305 -97.50318 18699 ft 443 kts 90°
2026-04-29 16:27 41.37280 -97.46230 18355 ft 440 kts 90°
2026-04-29 16:28 41.37246 -97.42176 18023 ft 436 kts 90°
2026-04-29 16:28 41.37214 -97.38155 17614 ft 434 kts 90°
2026-04-29 16:28 41.37184 -97.34146 17190 ft 431 kts 90°
2026-04-29 16:28 41.37152 -97.30185 16855 ft 425 kts 90°
2026-04-29 16:29 41.37115 -97.26260 16544 ft 424 kts 90°
2026-04-29 16:29 41.37081 -97.22337 16241 ft 424 kts 90°
2026-04-29 16:29 41.37045 -97.18417 15932 ft 422 kts 90°
2026-04-29 16:29 41.37005 -97.14524 15629 ft 418 kts 90°
2026-04-29 16:30 41.36966 -97.10670 15327 ft 413 kts 90°
2026-04-29 16:30 41.36927 -97.06933 15034 ft 392 kts 90°
2026-04-29 16:30 41.36887 -97.03403 14755 ft 371 kts 90°
2026-04-29 16:30 41.36851 -97.00046 14494 ft 354 kts 90°
2026-04-29 16:31 41.36817 -96.96845 14235 ft 339 kts 90°
2026-04-29 16:31 41.36780 -96.93760 13979 ft 327 kts 90°
2026-04-29 16:31 41.36743 -96.90786 13740 ft 317 kts 90°
2026-04-29 16:31 41.36711 -96.87867 13504 ft 315 kts 90°
2026-04-29 16:32 41.36603 -96.84945 13256 ft 318 kts 98°
2026-04-29 16:32 41.36086 -96.82076 13044 ft 319 kts 104°
2026-04-29 16:32 41.35584 -96.79196 12822 ft 320 kts 102°
2026-04-29 16:32 41.35112 -96.76320 12592 ft 316 kts 103°
2026-04-29 16:33 41.34116 -96.70669 12142 ft 311 kts 103°
2026-04-29 16:33 41.33625 -96.67867 11920 ft 311 kts 103°
2026-04-29 16:33 41.33137 -96.65070 11693 ft 310 kts 103°
2026-04-29 16:34 41.32649 -96.62278 11470 ft 309 kts 103°
2026-04-29 16:34 41.32159 -96.59495 11250 ft 309 kts 104°
2026-04-29 16:34 41.31669 -96.56719 11024 ft 307 kts 104°
2026-04-29 16:34 41.31183 -96.53962 10803 ft 305 kts 104°
2026-04-29 16:35 41.30702 -96.51219 10586 ft 304 kts 104°
2026-04-29 16:35 41.30216 -96.48484 10362 ft 303 kts 104°
2026-04-29 16:35 41.29740 -96.45805 10149 ft 301 kts 104°
2026-04-29 16:35 41.29262 -96.43097 9912 ft 300 kts 104°
2026-04-29 16:36 41.28784 -96.40407 9683 ft 298 kts 103°
2026-04-29 16:36 41.28308 -96.37733 9471 ft 296 kts 103°
2026-04-29 16:36 41.27834 -96.35074 9249 ft 295 kts 104°
2026-04-29 16:36 41.27360 -96.32426 9028 ft 294 kts 104°
2026-04-29 16:37 41.26891 -96.29787 8819 ft 292 kts 103°
2026-04-29 16:37 41.26424 -96.27164 8600 ft 292 kts 103°
2026-04-29 16:37 41.25954 -96.24539 8396 ft 291 kts 104°
2026-04-29 16:37 41.25635 -96.22782 8260 ft 289 kts 104°
2026-04-29 16:38 41.25020 -96.19346 7980 ft 288 kts 103°
2026-04-29 16:38 41.24564 -96.16760 7762 ft 287 kts 103°
2026-04-29 16:38 41.24102 -96.14192 7564 ft 286 kts 104°
2026-04-29 16:38 41.23637 -96.11629 7366 ft 286 kts 103°
2026-04-29 16:39 41.23176 -96.09065 7153 ft 284 kts 104°
2026-04-29 16:39 41.22724 -96.06560 6945 ft 273 kts 104°
2026-04-29 16:39 41.22287 -96.04145 6762 ft 265 kts 104°
2026-04-29 16:39 41.21862 -96.01786 6555 ft 260 kts 104°
2026-04-29 16:40 41.21445 -95.99478 6360 ft 254 kts 103°
2026-04-29 16:40 41.20812 -95.97330 6177 ft 245 kts 123°
2026-04-29 16:40 41.19808 -95.95559 6182 ft 238 kts 131°
2026-04-29 16:40 41.18747 -95.93852 6178 ft 242 kts 132°
2026-04-29 16:41 41.17664 -95.92109 6161 ft 248 kts 132°
2026-04-29 16:41 41.16543 -95.90320 5806 ft 254 kts 132°
2026-04-29 16:41 41.15413 -95.88509 5461 ft 255 kts 131°
2026-04-29 16:41 41.14592 -95.86425 5107 ft 259 kts 102°
2026-04-29 16:42 41.14692 -95.84112 4736 ft 249 kts 69°
2026-04-29 16:42 41.15364 -95.82053 4477 ft 239 kts 61°
2026-04-29 16:42 41.16198 -95.80203 4213 ft 229 kts 41°
2026-04-29 16:42 41.17535 -95.79225 3927 ft 216 kts 13°
2026-04-29 16:43 41.18948 -95.78747 3822 ft 204 kts
2026-04-29 16:43 41.20213 -95.79093 3629 ft 175 kts 324°
2026-04-29 16:43 41.20846 -95.80328 3313 ft 160 kts 291°
2026-04-29 16:43 41.21499 -95.81385 3216 ft 142 kts 328°
2026-04-29 16:44 41.22324 -95.82033 3211 ft 133 kts 326°
2026-04-29 16:44 41.23112 -95.82747 3028 ft 138 kts 322°
2026-04-29 16:44 41.23854 -95.83502 2764 ft 134 kts 321°
2026-04-29 16:44 41.24588 -95.84179 2685 ft 118 kts 324°
2026-04-29 16:45 41.25241 -95.84758 2569 ft 109 kts 323°
2026-04-29 16:45 41.25891 -95.85286 2349 ft 112 kts 331°
2026-04-29 16:45 41.26621 -95.85713 2139 ft 115 kts 333°
2026-04-29 16:45 41.27335 -95.86259 1781 ft 121 kts 327°
2026-04-29 16:46 41.28035 -95.86896 1527 ft 122 kts 324°
2026-04-29 16:46 41.28719 -95.87556 1257 ft 120 kts 327°
2026-04-29 16:46 41.29390 -95.88182 1032 ft 114 kts 326°
2026-04-29 16:46 41.29944 -95.88700 985 ft 77 kts 323°
2026-04-29 16:47 41.30197 -95.88942 980 ft 19 kts 325°
2026-04-29 16:47 41.30304 -95.88914 982 ft 19 kts 53°
2026-04-29 16:47 41.30342 -95.88796 979 ft 14 kts 78°
2026-04-29 16:47 41.30355 -95.88664 986 ft 14 kts 102°
2026-04-29 16:48 41.30332 -95.88626 979 ft 0 kts 150°